Location: Handeloh
(53.2500°N, 9.8330°E)
Time: 05:47:58
(UTC+01:00)

S-56A Canister/Altair - Pass Details

Date: 23 November 2019
Orbit: 632 x 2500 km, 38.9° (Epoch: 14 December)

Event Time Altitude Azimuth Distance (km) Brightness Sun altitude
Rises 20:23:58 0° 263° (W) 4,544 12.3 -36.5°
Reaches altitude 10° 20:28:39 10° 246° (WSW) 3,162 11.1 -37.2°
Enters shadow 20:32:32 16° 215° (SW) 2,404 10.1 -37.7°
Maximum altitude 20:32:56 16° 210° (SSW) 2,367 - -37.8°
Drops below altitude 10° 20:36:29 10° 173° (S) 2,517 - -38.3°
Sets 20:39:37 0° 151° (SSE) 3,230 - -38.7°
